SCP
0 0 0 0 0 0 0 0 0 0 0 0 0 0 0 0 0 0 0 0 0 0 0 0 0 0 0 0 0 0 0 0 0 0 0 0 0 0 0 0 0 0 0
0 0 0 0 0 0 0 0 0 0 0 0 0 0 0 0 0 0 0 0 0 0 0 0 0 0 0 0 0 0 0 0 0 0 0 0 0 0 0 0 0 0 0
0 0 0 0 0 0 0 0 0 0 0 0 0 0 0 0 0 0 0 0 0 0 0 0 0 0 0 0 0 0 0 0 0 0 0 0 0 0 0 0 0 0 0
0 0 0 0 0 0 0 0 0 0 0 0 0 0 0 0 0 0 0 0 0 0 0 0 0 0 0 0 0 0 0 0 0 0 0 0 0 0 0 0 0 0 0
0 0 0 0 0 0 0 0 0 0 0 0 0 0 0 0 0 0 0 0 0 0 0 0 0 0 0 0 0 0 0 0 0 0 0 0 0 0 0 0 0 0 0
0 0 0 0 0 0 0 0 0 0 0 0 0 0 0 0 0 0 0 0 0 0 0 0 0 0 0 0 0 0 0 0 0 0 0 0 0 0 0 0 0 0 0
0 0 0 0 0 0 0 0 0 0 0 0 0 0 0 0 0 0 0 0 0 0 0 0 0 0 0 0 0 0 0 0 0 0 0 0 0 0 0 0 0 0 0
0 0 0 0 0 0 0 0 0 0 0 0 0 0 0 0 0 0 0 0 0 0 0 0 0 0 0 0 0 0 0 0 0 0 0 0 0 0 0 0 0 0 0
0 0 0 0 0 0 0 0 0 0 0 0 0 0 0 0 0 0 0 0 0 0 0 0 0 0 0 0 0 0 0 0 0 0 0 0 0 0 0 0 0 0 0
0 0 0 0 0 0 0 0 0 0 0 0 0 0 0 0 0 0 0 0 0 0 0 0 0 0 0 0 0 0 0 0 0 0 0 0 0 0 0 0 0 0 0
0 0 0 0 0 0 -0 -0 0 0 0 0 0 0 0 0 0 0 0 0 0 0 0 0 0 0 0 0 0 0 0 0 0 0 0 0 0 0 0 0 0 0 0
0 0 0 0 0 -0 -0 -0 0 0 0 0 0 0 0 0 0 0 0 0 0 0 0 0 0 0 0 0 0 0 0 0 0 0 0 0 0 0 0 0 0 0 0
0 0 0 0 0 0 -0 0 0 0 0 0 0 0 0 0 0 0 0 0 0 0 0 0 0 0 0 0 0 0 0 0 0 0 0 0 0 0 0 0 0 0 0
0 0 0 0 0 0 0 0 0 0 0 0 0 0 0 0 0 0 0 0 0 0 0 0 0 0 0 0 0 0 0 0 0 0 0 0 0 0 0 0 0 0 0
0 0 0 0 0 0 0 0 0 0 0 0 0 0 0 0 0 0 0 0 0 0 0 0 0 0 0 0 0 0 0 0 0 0 0 0 0 0 0 0 0 0 0
0 0 -0 -0 0 0 0 0 0 0 0 0 0 0 0 0 0 0 0 0 0 0 0 0 0 0 0 0 0 0 0 0 0 0 0 0 0 0 0 0 0 0 0
0 0 0 0 0 0 0 0 0 0 0 0 0 0 0 0 0 0 0 0 0 0 0 0 0 0 0 0 0 0 0 0 0 0 0 0 0 0 0 0 0 0 0
0 0 0 0 0 0 0 0 0 0 0 0 0 0 0 0 0 0 0 0 0 0 0 0 0 0 0 0 0 0 0 0 0 0 0 0 0 0 0 0 0 0 0
0 0 0 0 0 0 0 0 0 0 0 0 0 0 0 0 0 0 0 0 0 0 0 0 0 0 0 0 0 0 0 0 0 0 0 0 0 0 0 0 0 0 0
0 0 0 0 0 0 0 0 0 0 0 0 0 0 0 0 0 0 0 0 0 0 0 0 0 0 0 0 0 0 0 0 0 0 0 0 0 0 0 0 0 0 0
0 0 0 0 0 0 0 0 0 0 0 0 0 0 0 0 0 0 0 0 0 0 0 0 0 0 0 0 0 0 0 0 0 0 0 0 0 0 0 0 0 0 0
0 0 0 0 0 0 0 0 0 0 0 0 0 0 0 0 0 0 0 0 0 0 0 0 0 0 0 0 0 0 0 0 0 0 0 0 0 0 0 0 0 0 0
0 0 0 0 0 0 0 0 0 0 0 0 0 0 0 0 0 0 0 0 0 0 0 0 0 0 0 0 0 0 0 0 0 0 0 0 0 0 0 0 0 0 0
0 0 0 0 0 0 0 0 0 0 0 0 0 0 0 0 0 0 0 0 0 0 0 0 0 0 0 0 0 0 0 0 0 0 0 0 0 0 0 0 0 0 0
0 0 0 0 0 0 0 0 0 0 0 0 0 0 0 0 0 0 0 0 0 0 0 0 0 0 0 0 0 0 0 0 0 0 0 0 0 0 0 0 0 0 0
0 0 0 0 0 0 0 0 0 0 0 0 0 0 0 0 0 0 0 0 0 0 0 0 0 0 0 0 0 0 0 0 0 0 0 0 0 0 0 0 0 0 0
Wind_Speed_500mb
61 55 61 66 68 74 77 78 77 74 73 73 71 71 70 71 72 73 66 68 65 66 65 60 67 54 57 46 42 47 55 55 52 48 42 35 27 22 17 12 7 3 1
66 67 67 65 73 76 80 82 81 79 77 76 73 73 71 70 72 70 68 68 66 67 68 64 65 54 59 51 51 55 64 60 58 51 39 24 21 23 21 17 11 6 5
71 57 69 76 72 78 83 84 84 82 80 77 77 75 69 68 73 76 74 71 68 69 70 71 70 65 64 56 57 62 68 68 69 59 27 17 16 32 26 21 17 14 9
67 59 63 74 72 76 77 84 86 85 83 81 81 77 75 77 81 78 73 69 67 76 72 75 83 69 59 58 61 66 69 69 68 66 53 25 23 18 20 30 24 19 13
52 51 50 51 53 65 75 77 83 88 88 87 82 79 78 76 77 73 69 71 73 70 75 66 69 59 60 64 65 69 74 69 68 65 58 42 32 27 17 19 32 27 18
32 30 35 40 44 50 59 69 78 84 89 91 88 86 81 78 82 77 76 80 78 76 75 75 68 62 65 68 66 69 71 70 66 62 50 45 41 37 25 16 24 19 22
23 22 19 19 27 36 47 59 68 77 85 92 91 88 84 83 81 79 80 80 81 83 81 79 70 65 68 69 69 71 73 70 65 60 53 45 41 30 32 21 25 22 23
37 26 23 25 29 33 38 43 52 62 76 88 89 86 83 83 81 78 79 76 75 77 75 71 71 68 72 71 72 73 73 70 62 57 52 47 39 30 26 20 18 17 17
39 31 24 23 28 29 30 34 42 49 61 71 83 88 88 83 82 80 80 73 74 74 70 74 71 72 73 73 75 75 72 67 62 57 50 42 34 28 22 17 15 14 15
45 37 30 29 27 24 22 27 34 41 50 57 72 84 84 82 81 77 83 77 75 73 74 75 75 76 76 80 79 75 71 68 63 55 47 39 32 25 20 14 12 18 18
14 27 30 27 22 24 17 16 25 34 43 50 61 75 82 81 78 78 84 82 77 76 79 78 75 76 80 83 80 75 72 68 61 54 46 38 31 23 13 15 25 20 20
10 21 28 27 22 17 10 23 25 31 37 41 53 67 75 79 81 83 84 84 80 79 79 82 80 81 84 86 83 80 74 67 61 53 47 38 29 18 18 18 24 23 23
16 23 28 29 30 24 19 30 33 33 38 43 49 59 72 81 85 84 83 85 82 80 84 86 88 88 89 91 85 77 72 66 58 51 45 38 27 22 11 25 27 27 28
25 30 32 34 37 38 40 39 39 42 46 47 52 59 70 80 82 79 82 84 82 80 85 87 89 90 92 91 86 80 73 65 58 52 44 33 29 17 21 31 30 31 32
79 78 73 67 63 64 58 49 46 52 58 57 58 62 69 78 81 81 82 83 81 79 81 87 91 93 95 95 91 83 75 68 63 56 44 40 31 21 30 36 33 35 37
76 86 75 86 82 70 69 74 61 62 67 68 67 66 72 80 85 82 82 84 82 81 82 88 94 97 99 98 90 83 77 71 65 56 48 42 31 30 39 40 40 43 42
83 82 90 87 86 84 78 74 71 71 75 77 75 74 76 79 83 85 80 86 85 81 82 86 93 97 99 98 92 84 77 72 68 61 46 46 42 35 46 43 50 51 49
77 87 90 86 79 75 70 68 69 71 72 73 75 75 77 78 81 86 84 88 89 86 84 88 92 97 101 99 90 82 75 71 65 61 52 61 49 46 48 51 59 57 57
74 66 60 57 51 46 46 48 52 57 64 68 70 71 73 77 81 85 87 89 88 87 90 90 93 100 101 93 87 81 75 69 66 60 65 64 62 56 60 57 63 63 64
41 37 34 43 51 51 53 53 54 54 57 58 58 61 65 70 74 77 80 81 82 83 86 88 92 94 85 86 84 79 73 69 69 67 74 70 62 62 59 60 61 68 66
48 51 47 46 47 49 52 54 54 52 45 44 45 47 49 52 57 62 69 73 76 78 77 80 77 71 77 80 81 75 73 74 67 76 73 70 58 59 55 58 65 68 65
42 40 37 34 35 35 34 35 37 34 32 31 32 33 34 39 46 52 57 61 63 66 63 55 54 62 70 74 75 74 74 68 73 80 73 69 61 55 54 59 64 65 63
37 40 38 34 31 30 25 21 22 21 21 21 22 24 27 30 33 39 44 48 51 51 48 52 62 68 71 73 73 71 75 75 81 81 72 64 56 52 58 60 61 60 62
32 31 29 27 22 20 16 13 12 14 16 17 18 19 20 23 25 29 31 36 40 46 49 54 62 67 68 72 75 82 81 84 78 76 66 60 59 60 60 61 59 62 60
27 24 20 16 14 15 17 19 19 21 22 22 22 22 22 23 25 26 30 34 34 35 36 40 47 59 69 74 76 67 62 64 66 71 62 61 65 66 61 60 59 57 56
20 18 16 18 24 30 30 28 25 22 18 20 20 18 20 26 29 34 41 42 38 40 38 36 35 34 37 41 45 57 62 63 58 60 66 66 67 66 66 63 60 57 52
Wind_Direction_500mb
256 252 244 241 237 235 234 234 235 235 233 233 232 233 232 229 227 223 224 226 224 225 228 234 231 225 211 224 237 223 208 194 191 183 171 170 170 166 161 160 171 164 27
255 252 250 244 239 238 237 237 237 237 237 237 236 237 237 233 228 225 224 221 222 224 227 225 216 229 210 225 232 225 203 201 194 191 175 166 181 186 186 189 190 208 247
256 250 252 249 245 241 239 239 239 239 239 237 235 236 235 232 225 223 224 218 219 225 225 226 226 226 224 234 234 220 213 206 197 196 182 172 196 189 197 198 204 216 228
260 256 249 252 248 247 245 240 240 240 239 237 238 238 239 234 228 229 225 215 220 226 218 230 233 224 230 231 228 220 216 215 210 204 207 208 204 181 185 207 211 217 222
262 263 267 265 259 250 246 245 241 240 240 239 239 239 238 235 234 231 221 217 217 222 228 227 230 230 232 229 222 219 215 215 217 212 216 220 214 208 192 187 209 215 223
272 268 259 256 248 242 240 240 240 240 239 239 238 238 237 234 230 226 223 219 220 222 222 219 223 231 230 226 224 221 217 215 217 220 228 232 218 216 208 183 190 203 224
262 264 263 261 256 251 244 241 238 239 239 239 236 236 235 234 231 230 223 221 220 218 222 223 226 228 227 222 221 216 214 213 217 224 227 224 221 230 218 210 195 200 223
269 257 253 256 253 248 245 244 243 241 239 238 235 234 232 233 229 228 227 225 228 228 226 229 227 226 225 221 217 213 212 214 220 218 221 219 219 212 209 211 202 197 222
274 269 246 241 243 243 248 251 252 250 247 242 237 234 234 234 230 228 226 227 228 227 230 228 228 225 223 217 212 212 213 214 215 215 214 212 211 208 210 212 217 221 219
262 252 239 228 229 230 236 255 262 259 254 248 239 237 236 234 231 226 224 226 228 228 228 227 226 224 220 215 212 212 211 212 211 210 209 206 204 203 207 217 268 248 237
242 220 212 216 222 226 234 265 273 270 264 253 242 237 235 233 231 225 223 225 229 228 230 225 224 225 220 213 211 210 210 209 208 205 203 200 197 198 196 273 259 249 250
222 202 207 210 213 227 281 272 277 280 271 261 248 241 235 233 232 227 225 226 225 229 228 226 223 221 218 213 210 209 208 208 207 205 200 196 189 200 254 257 254 256 260
263 239 228 226 226 235 285 265 259 271 275 263 253 243 234 232 233 230 226 226 225 227 226 226 225 220 216 213 211 210 210 209 207 204 198 190 203 253 225 251 254 260 267
263 257 258 255 254 272 274 270 267 268 265 262 255 248 239 235 235 232 226 227 226 230 229 229 226 222 218 214 211 209 208 207 203 199 194 201 236 214 233 251 255 263 271
278 278 280 278 278 274 272 273 282 274 266 261 257 252 243 237 236 233 227 228 229 233 232 230 224 220 217 215 212 210 207 205 202 197 196 221 243 216 240 251 260 268 274
275 277 283 290 295 291 293 290 280 273 264 259 258 251 244 239 235 234 228 228 229 232 231 229 225 220 217 216 214 212 208 205 204 201 206 235 253 224 242 253 262 269 275
270 273 280 284 284 286 286 282 283 273 266 261 257 252 247 242 236 234 231 228 229 232 233 230 226 222 219 215 213 210 209 208 204 204 218 260 255 225 245 256 265 267 274
273 279 284 284 284 283 281 279 274 270 266 261 257 252 248 244 237 234 232 230 228 229 233 234 229 223 219 215 212 211 208 208 208 215 239 267 253 236 247 255 264 271 275
280 277 279 279 281 284 281 277 274 271 266 263 258 253 250 244 239 235 231 229 229 231 231 232 229 223 218 214 212 212 210 208 213 226 251 266 261 249 244 248 261 270 274
273 276 274 277 278 276 274 271 274 272 268 265 262 255 250 245 241 238 236 234 233 233 233 232 226 222 216 215 215 214 213 213 218 242 255 268 268 254 259 253 263 268 275
279 281 280 279 276 272 271 271 269 265 265 259 254 251 249 246 243 239 235 234 231 232 231 231 226 213 214 218 219 217 217 217 236 249 258 268 262 257 258 263 266 271 276
279 284 288 288 285 280 272 265 260 258 252 246 240 235 233 232 230 229 230 229 229 229 227 221 210 207 214 219 220 221 221 237 242 249 263 263 266 255 264 264 265 270 276
275 277 279 280 282 276 266 261 255 247 237 226 219 215 212 213 214 217 219 222 223 223 218 201 203 207 212 219 219 226 235 237 241 255 264 260 266 264 263 259 262 266 268
276 275 276 275 266 256 245 226 200 185 174 176 176 179 185 188 193 199 206 215 214 203 212 207 206 207 213 218 221 228 230 236 249 261 254 259 262 264 262 261 263 265 269
263 260 256 249 223 183 153 142 144 141 141 140 144 151 155 159 169 182 194 199 211 220 215 216 220 220 224 230 234 236 240 252 255 253 249 259 259 263 262 263 264 267 270
245 238 214 193 174 152 144 141 138 134 136 130 133 143 157 166 173 183 189 195 202 213 230 236 234 236 235 237 239 243 254 254 249 246 252 256 256 257 260 264 268 268 271
Wind_Speed_850mb
61 55 61 66 68 74 77 78 77 74 73 73 71 71 70 71 72 73 66 68 65 66 65 60 67 54 57 46 42 47 55 55 52 48 42 35 27 22 17 12 7 3 1
66 67 67 65 73 76 80 82 81 79 77 76 73 73 71 70 72 70 68 68 66 67 68 64 65 54 59 51 51 55 64 60 58 51 39 24 21 23 21 17 11 6 5
71 57 69 76 72 78 83 84 84 82 80 77 77 75 69 68 73 76 74 71 68 69 70 71 70 65 64 56 57 62 68 68 69 59 27 17 16 32 26 21 17 14 9
67 59 63 74 72 76 77 84 86 85 83 81 81 77 75 77 81 78 73 69 67 76 72 75 83 69 59 58 61 66 69 69 68 66 53 25 23 18 20 30 24 19 13
52 51 50 51 53 65 75 77 83 88 88 87 82 79 78 76 77 73 69 71 73 70 75 66 69 59 60 64 65 69 74 69 68 65 58 42 32 27 17 19 32 27 18
32 30 35 40 44 50 59 69 78 84 89 91 88 86 81 78 82 77 76 80 78 76 75 75 68 62 65 68 66 69 71 70 66 62 50 45 41 37 25 16 24 19 22
23 22 19 19 27 36 47 59 68 77 85 92 91 88 84 83 81 79 80 80 81 83 81 79 70 65 68 69 69 71 73 70 65 60 53 45 41 30 32 21 25 22 23
37 26 23 25 29 33 38 43 52 62 76 88 89 86 83 83 81 78 79 76 75 77 75 71 71 68 72 71 72 73 73 70 62 57 52 47 39 30 26 20 18 17 17
39 31 24 23 28 29 30 34 42 49 61 71 83 88 88 83 82 80 80 73 74 74 70 74 71 72 73 73 75 75 72 67 62 57 50 42 34 28 22 17 15 14 15
45 37 30 29 27 24 22 27 34 41 50 57 72 84 84 82 81 77 83 77 75 73 74 75 75 76 76 80 79 75 71 68 63 55 47 39 32 25 20 14 12 18 18
14 27 30 27 22 24 17 16 25 34 43 50 61 75 82 81 78 78 84 82 77 76 79 78 75 76 80 83 80 75 72 68 61 54 46 38 31 23 13 15 25 20 20
10 21 28 27 22 17 10 23 25 31 37 41 53 67 75 79 81 83 84 84 80 79 79 82 80 81 84 86 83 80 74 67 61 53 47 38 29 18 18 18 24 23 23
16 23 28 29 30 24 19 30 33 33 38 43 49 59 72 81 85 84 83 85 82 80 84 86 88 88 89 91 85 77 72 66 58 51 45 38 27 22 11 25 27 27 28
25 30 32 34 37 38 40 39 39 42 46 47 52 59 70 80 82 79 82 84 82 80 85 87 89 90 92 91 86 80 73 65 58 52 44 33 29 17 21 31 30 31 32
79 78 73 67 63 64 58 49 46 52 58 57 58 62 69 78 81 81 82 83 81 79 81 87 91 93 95 95 91 83 75 68 63 56 44 40 31 21 30 36 33 35 37
76 86 75 86 82 70 69 74 61 62 67 68 67 66 72 80 85 82 82 84 82 81 82 88 94 97 99 98 90 83 77 71 65 56 48 42 31 30 39 40 40 43 42
83 82 90 87 86 84 78 74 71 71 75 77 75 74 76 79 83 85 80 86 85 81 82 86 93 97 99 98 92 84 77 72 68 61 46 46 42 35 46 43 50 51 49
77 87 90 86 79 75 70 68 69 71 72 73 75 75 77 78 81 86 84 88 89 86 84 88 92 97 101 99 90 82 75 71 65 61 52 61 49 46 48 51 59 57 57
74 66 60 57 51 46 46 48 52 57 64 68 70 71 73 77 81 85 87 89 88 87 90 90 93 100 101 93 87 81 75 69 66 60 65 64 62 56 60 57 63 63 64
41 37 34 43 51 51 53 53 54 54 57 58 58 61 65 70 74 77 80 81 82 83 86 88 92 94 85 86 84 79 73 69 69 67 74 70 62 62 59 60 61 68 66
48 51 47 46 47 49 52 54 54 52 45 44 45 47 49 52 57 62 69 73 76 78 77 80 77 71 77 80 81 75 73 74 67 76 73 70 58 59 55 58 65 68 65
42 40 37 34 35 35 34 35 37 34 32 31 32 33 34 39 46 52 57 61 63 66 63 55 54 62 70 74 75 74 74 68 73 80 73 69 61 55 54 59 64 65 63
37 40 38 34 31 30 25 21 22 21 21 21 22 24 27 30 33 39 44 48 51 51 48 52 62 68 71 73 73 71 75 75 81 81 72 64 56 52 58 60 61 60 62
32 31 29 27 22 20 16 13 12 14 16 17 18 19 20 23 25 29 31 36 40 46 49 54 62 67 68 72 75 82 81 84 78 76 66 60 59 60 60 61 59 62 60
27 24 20 16 14 15 17 19 19 21 22 22 22 22 22 23 25 26 30 34 34 35 36 40 47 59 69 74 76 67 62 64 66 71 62 61 65 66 61 60 59 57 56
20 18 16 18 24 30 30 28 25 22 18 20 20 18 20 26 29 34 41 42 38 40 38 36 35 34 37 41 45 57 62 63 58 60 66 66 67 66 66 63 60 57 52
Wind_Direction_850mb
256 252 244 241 237 235 234 234 235 235 233 233 232 233 232 229 227 223 224 226 224 225 228 234 231 225 211 224 237 223 208 194 191 183 171 170 170 166 161 160 171 164 27
255 252 250 244 239 238 237 237 237 237 237 237 236 237 237 233 228 225 224 221 222 224 227 225 216 229 210 225 232 225 203 201 194 191 175 166 181 186 186 189 190 208 247
256 250 252 249 245 241 239 239 239 239 239 237 235 236 235 232 225 223 224 218 219 225 225 226 226 226 224 234 234 220 213 206 197 196 182 172 196 189 197 198 204 216 228
260 256 249 252 248 247 245 240 240 240 239 237 238 238 239 234 228 229 225 215 220 226 218 230 233 224 230 231 228 220 216 215 210 204 207 208 204 181 185 207 211 217 222
262 263 267 265 259 250 246 245 241 240 240 239 239 239 238 235 234 231 221 217 217 222 228 227 230 230 232 229 222 219 215 215 217 212 216 220 214 208 192 187 209 215 223
272 268 259 256 248 242 240 240 240 240 239 239 238 238 237 234 230 226 223 219 220 222 222 219 223 231 230 226 224 221 217 215 217 220 228 232 218 216 208 183 190 203 224
262 264 263 261 256 251 244 241 238 239 239 239 236 236 235 234 231 230 223 221 220 218 222 223 226 228 227 222 221 216 214 213 217 224 227 224 221 230 218 210 195 200 223
269 257 253 256 253 248 245 244 243 241 239 238 235 234 232 233 229 228 227 225 228 228 226 229 227 226 225 221 217 213 212 214 220 218 221 219 219 212 209 211 202 197 222
274 269 246 241 243 243 248 251 252 250 247 242 237 234 234 234 230 228 226 227 228 227 230 228 228 225 223 217 212 212 213 214 215 215 214 212 211 208 210 212 217 221 219
262 252 239 228 229 230 236 255 262 259 254 248 239 237 236 234 231 226 224 226 228 228 228 227 226 224 220 215 212 212 211 212 211 210 209 206 204 203 207 217 268 248 237
242 220 212 216 222 226 234 265 273 270 264 253 242 237 235 233 231 225 223 225 229 228 230 225 224 225 220 213 211 210 210 209 208 205 203 200 197 198 196 273 259 249 250
222 202 207 210 213 227 281 272 277 280 271 261 248 241 235 233 232 227 225 226 225 229 228 226 223 221 218 213 210 209 208 208 207 205 200 196 189 200 254 257 254 256 260
263 239 228 226 226 235 285 265 259 271 275 263 253 243 234 232 233 230 226 226 225 227 226 226 225 220 216 213 211 210 210 209 207 204 198 190 203 253 225 251 254 260 267
263 257 258 255 254 272 274 270 267 268 265 262 255 248 239 235 235 232 226 227 226 230 229 229 226 222 218 214 211 209 208 207 203 199 194 201 236 214 233 251 255 263 271
278 278 280 278 278 274 272 273 282 274 266 261 257 252 243 237 236 233 227 228 229 233 232 230 224 220 217 215 212 210 207 205 202 197 196 221 243 216 240 251 260 268 274
275 277 283 290 295 291 293 290 280 273 264 259 258 251 244 239 235 234 228 228 229 232 231 229 225 220 217 216 214 212 208 205 204 201 206 235 253 224 242 253 262 269 275
270 273 280 284 284 286 286 282 283 273 266 261 257 252 247 242 236 234 231 228 229 232 233 230 226 222 219 215 213 210 209 208 204 204 218 260 255 225 245 256 265 267 274
273 279 284 284 284 283 281 279 274 270 266 261 257 252 248 244 237 234 232 230 228 229 233 234 229 223 219 215 212 211 208 208 208 215 239 267 253 236 247 255 264 271 275
280 277 279 279 281 284 281 277 274 271 266 263 258 253 250 244 239 235 231 229 229 231 231 232 229 223 218 214 212 212 210 208 213 226 251 266 261 249 244 248 261 270 274
273 276 274 277 278 276 274 271 274 272 268 265 262 255 250 245 241 238 236 234 233 233 233 232 226 222 216 215 215 214 213 213 218 242 255 268 268 254 259 253 263 268 275
279 281 280 279 276 272 271 271 269 265 265 259 254 251 249 246 243 239 235 234 231 232 231 231 226 213 214 218 219 217 217 217 236 249 258 268 262 257 258 263 266 271 276
279 284 288 288 285 280 272 265 260 258 252 246 240 235 233 232 230 229 230 229 229 229 227 221 210 207 214 219 220 221 221 237 242 249 263 263 266 255 264 264 265 270 276
275 277 279 280 282 276 266 261 255 247 237 226 219 215 212 213 214 217 219 222 223 223 218 201 203 207 212 219 219 226 235 237 241 255 264 260 266 264 263 259 262 266 268
276 275 276 275 266 256 245 226 200 185 174 176 176 179 185 188 193 199 206 215 214 203 212 207 206 207 213 218 221 228 230 236 249 261 254 259 262 264 262 261 263 265 269
263 260 256 249 223 183 153 142 144 141 141 140 144 151 155 159 169 182 194 199 211 220 215 216 220 220 224 230 234 236 240 252 255 253 249 259 259 263 262 263 264 267 270
245 238 214 193 174 152 144 141 138 134 136 130 133 143 157 166 173 183 189 195 202 213 230 236 234 236 235 237 239 243 254 254 249 246 252 256 256 257 260 264 268 268 271